Wichita, KS

5:26 PM CST on December 06, 2016 (GMT -0600)
Col Jabara

Weather History for KAAO - November, 2013

Change the Weather History Date:

Wednesday, November 13, 2013

  Actual Average (KICT) Record (KICT)
Temperature  
Mean Temperature 34 °F 47 °F  
Max Temperature 48 °F 58 °F 79 °F (1999)
Min Temperature 21 °F 36 °F 4 °F (1940)
Degree Days  
Heating Degree Days 30 18  
Month to date heating degree days 201  
Since 1 July heating degree days 487  
Cooling Degree Days 0 0  
Month to date cooling degree days 0  
Year to date cooling degree days 1684  
Moisture  
Dew Point 17 °F    
Average Humidity 49    
Maximum Humidity 78    
Minimum Humidity 33    
Precipitation  
Precipitation 0.00 in 0.06 in 2.19 in (1909)
Month to date precipitation 0.73  
Year to date precipitation 30.74  
Snow  
Snow 0.00 in 0.00 in 0.10 in (1929)
Month to date snowfall 0.2  
Since 1 July snowfall 0.3  
Since 1 September snowfall 0.3  
Snow Depth -    
Sea Level Pressure  
Sea Level Pressure 30.45 in    
Wind  
Wind Speed 12 mph (South)    
Max Wind Speed 22 mph    
Max Gust Speed 30 mph    
Visibility 10 miles    
Events      
T = Trace of Precipitation, MM = Missing Value Source: NWS Daily Summary

Daily Weather History Graph

Daily Weather History Graph

Search for Another Location

Airport or City:

Trip Planner

Search our weather history database for the weather conditions in past years. The results will help you decide how hot, cold, wet, or windy it might be!

Date:

Astronomy

Nov. 13, 2013 Rise Set
Actual Time 7:07 AM CST 5:18 PM CST
Civil Twilight 6:39 AM CST 5:46 PM CST
Nautical Twilight 6:07 AM CST 6:18 PM CST
Astronomical Twilight 5:36 AM CST 6:49 PM CST
Moon 3:03 PM CST (11/13) 3:05 AM CST (11/13)
Length of Visible Light 11h 07m
Length of Day
10h 11m
Waxing Gibbous, 85% of the Moon is Illuminated
Nov 13
Waxing Gibbous
Nov 17
Full
Nov 25
Last Quarter
Dec 2
New
Dec 9
First Quarter

Hourly Weather History & Observations

Time (CST) Temp. Windchill Dew Point Humidity Pressure Visibility Wind Dir Wind Speed Gust Speed Precip Events Conditions
12:54 AM 21.9 °F - 15.1 °F 75% 30.72 in 10.0 mi Calm Calm - N/A   Clear
1:54 AM 21.0 °F 13.4 °F 15.1 °F 78% 30.70 in 10.0 mi South 5.8 mph - N/A   Clear
2:54 AM 21.0 °F 12.4 °F 14.0 °F 74% 30.66 in 10.0 mi South 6.9 mph - N/A   Clear
3:54 AM 24.1 °F 15.2 °F 12.9 °F 62% 30.65 in 10.0 mi South 8.1 mph - N/A   Clear
4:54 AM 23.0 °F 13.9 °F 14.0 °F 68% 30.63 in 10.0 mi South 8.1 mph - N/A   Clear
5:54 AM 24.1 °F 13.1 °F 14.0 °F 65% 30.61 in 10.0 mi South 11.5 mph - N/A   Clear
6:54 AM 23.0 °F 13.9 °F 15.1 °F 72% 30.60 in 10.0 mi South 8.1 mph - N/A   Clear
7:54 AM 26.1 °F 14.0 °F 15.1 °F 63% 30.60 in 10.0 mi South 15.0 mph - N/A   Clear
8:54 AM 30.0 °F 18.7 °F 15.1 °F 54% 30.59 in 10.0 mi South 16.1 mph - N/A   Clear
9:54 AM 35.1 °F 24.5 °F 15.1 °F 44% 30.56 in 10.0 mi South 18.4 mph 26.5 mph N/A   Clear
10:54 AM 37.9 °F 27.6 °F 16.0 °F 41% 30.53 in 10.0 mi South 20.7 mph - N/A   Clear
11:54 AM 42.1 °F 33.1 °F 17.1 °F 37% 30.48 in 10.0 mi South 20.7 mph - N/A   Clear
12:54 PM 46.0 °F 38.0 °F 19.0 °F 34% 30.43 in 10.0 mi South 21.9 mph 27.6 mph N/A   Clear
1:54 PM 48.0 °F - 19.9 °F 33% 30.38 in 10.0 mi South 19.6 mph 26.5 mph N/A   Clear
2:54 PM 48.9 °F - 21.9 °F 35% 30.35 in 10.0 mi South 18.4 mph 27.6 mph N/A   Clear
3:54 PM 48.0 °F - 21.9 °F 36% 30.32 in 10.0 mi South 20.7 mph 27.6 mph N/A   Clear
4:54 PM 46.0 °F 39.0 °F 21.0 °F 37% 30.30 in 10.0 mi South 17.3 mph 27.6 mph N/A   Clear
5:54 PM 45.0 °F 37.6 °F 19.0 °F 36% 30.27 in 10.0 mi South 17.3 mph 26.5 mph N/A   Clear
6:54 PM 44.1 °F 36.5 °F 17.1 °F 34% 30.27 in 10.0 mi South 17.3 mph 28.8 mph N/A   Clear
7:54 PM 43.0 °F 34.8 °F 17.1 °F 35% 30.27 in 10.0 mi South 18.4 mph 25.3 mph N/A   Clear
8:54 PM 42.1 °F 33.3 °F 18.0 °F 38% 30.26 in 10.0 mi South 19.6 mph 26.5 mph N/A   Clear
9:54 PM 41.0 °F 31.6 °F 18.0 °F 40% 30.23 in 10.0 mi South 20.7 mph 27.6 mph N/A   Clear
10:54 PM 41.0 °F 31.6 °F 18.0 °F 40% 30.21 in 10.0 mi South 20.7 mph 28.8 mph N/A   Clear
11:54 PM 41.0 °F 31.4 °F 17.1 °F 38% 30.19 in 10.0 mi SSW 21.9 mph 29.9 mph N/A   Clear